Weather History for Vicksburg, MS

Change the Weather History Date:

Friday, January 4, 2013

  Actual Average Record
Temperature  
Mean Temperature 42 °F 45 °F  
Max Temperature 51 °F 56 °F 79 °F (2004)
Min Temperature 32 °F 35 °F 17 °F (1979)
Degree Days  
Heating Degree Days 23 20  
Month to date heating degree days 88 79  
Since 1 July heating degree days 1025 1016  
Cooling Degree Days 0 0  
Month to date cooling degree days 0 0  
Year to date cooling degree days 0 0  
Moisture  
Dew Point 31 °F    
Average Humidity 68    
Maximum Humidity 92    
Minimum Humidity 44    
Precipitation  
Precipitation 0.00 in 0.17 in 3.10 in (1972)
Month to date precipitation 1.86 0.63  
Year to date precipitation 1.86 0.63  
Sea Level Pressure  
Sea Level Pressure 30.47 in    
Wind  
Wind Speed 5 mph (NNE)    
Max Wind Speed 12 mph    
Max Gust Speed 15 mph    
Visibility 10 miles    
Events      
T = Trace of Precipitation, MM = Missing Value Source: NWS Daily Summary

Daily Weather History Graph

Daily Weather History Graph

Search for Another Location

Airport:

Trip Planner

Search our weather history database for the weather conditions in past years. The results will help you decide how hot, cold, wet, or windy it might be!

Date:

Astronomy

Jan. 04, 2013 Rise Set
Actual Time 7:06 AM CST 5:12 PM CST
Civil Twilight 6:39 AM CST 5:39 PM CST
Nautical Twilight 6:08 AM CST 6:10 PM CST
Astronomical Twilight 5:38 AM CST 6:39 PM CST
Moon No Moon Rise 11:15 AM CST (1/4)
Length of Visible Light 11h 00m
Length of Day
10h 06m
Waning Gibbous, 55% of the Moon is Illuminated
Jan 4
Waning Gibbous
Jan 4
Last Quarter
Jan 11
New
Jan 18
First Quarter
Jan 26
Full

Hourly Weather History & Observations

Time (CST) Temp. Windchill Dew Point Humidity Pressure Visibility Wind Dir Wind Speed Gust Speed Precip Events Conditions
12:53 AM 35.1 °F 32.2 °F 32.0 °F 89% 30.46 in 10.0 mi NNE 3.5 mph - N/A   Clear
1:53 AM 35.1 °F 31.0 °F 30.9 °F 85% 30.46 in 10.0 mi North 4.6 mph - N/A   Clear
2:53 AM 34.0 °F 28.8 °F 30.0 °F 85% 30.45 in 10.0 mi NNE 5.8 mph - N/A   Clear
3:53 AM 35.1 °F 29.3 °F 30.9 °F 85% 30.46 in 10.0 mi NNE 6.9 mph - N/A   Scattered Clouds
4:53 AM 36.0 °F 33.3 °F 32.0 °F 86% 30.46 in 10.0 mi NE 3.5 mph - N/A   Overcast
5:53 AM 35.1 °F 31.0 °F 30.9 °F 85% 30.46 in 9.0 mi NE 4.6 mph - N/A   Mostly Cloudy
6:53 AM 32.0 °F 27.5 °F 30.0 °F 92% 30.50 in 6.0 mi WNW 4.6 mph - N/A   Mostly Cloudy
7:53 AM 36.0 °F 31.1 °F 32.0 °F 86% 30.52 in 7.0 mi North 5.8 mph - N/A   Overcast
8:53 AM 39.0 °F 34.0 °F 33.1 °F 79% 30.53 in 8.0 mi NNE 6.9 mph - N/A   Overcast
9:53 AM 41.0 °F 39.0 °F 33.1 °F 73% 30.54 in 9.0 mi NE 3.5 mph - N/A   Overcast
10:53 AM 44.1 °F - 30.9 °F 60% 30.54 in 10.0 mi Calm Calm - N/A   Clear
11:53 AM 48.9 °F - 30.9 °F 50% 30.50 in 10.0 mi NNW 3.5 mph - N/A   Overcast
12:53 PM 48.9 °F - 30.9 °F 50% 30.46 in 10.0 mi North 9.2 mph - N/A   Clear
1:53 PM 50.0 °F - 30.0 °F 46% 30.45 in 10.0 mi North 5.8 mph - N/A   Clear
2:53 PM 51.1 °F - 30.0 °F 44% 30.44 in 10.0 mi NNE 9.2 mph - N/A   Partly Cloudy
3:53 PM 48.9 °F - 28.9 °F 46% 30.45 in 10.0 mi North 8.1 mph - N/A   Overcast
4:53 PM 46.9 °F - 30.0 °F 52% 30.45 in 10.0 mi North 6.9 mph - N/A   Overcast
5:53 PM 45.0 °F 42.6 °F 32.0 °F 60% 30.45 in 10.0 mi NNE 4.6 mph - N/A   Overcast
6:53 PM 46.0 °F 43.9 °F 32.0 °F 58% 30.45 in 10.0 mi NE 4.6 mph - N/A   Overcast
7:53 PM 46.0 °F - 32.0 °F 58% 30.46 in 10.0 mi Calm Calm - N/A   Overcast
8:53 PM 46.0 °F 43.9 °F 34.0 °F 63% 30.44 in 10.0 mi ENE 4.6 mph - N/A   Overcast
9:53 PM 43.0 °F 41.3 °F 30.9 °F 62% 30.45 in 10.0 mi NNE 3.5 mph - N/A   Mostly Cloudy
10:53 PM 39.0 °F 36.8 °F 33.1 °F 79% 30.42 in 10.0 mi East 3.5 mph - N/A   Scattered Clouds
11:53 PM 36.0 °F - 34.0 °F 93% 30.42 in 10.0 mi Calm Calm - N/A   Clear